Regional Weather Roundup
Issued by NWS

Home | Current Version | Previous Version | Graphics & Text | Print | Product List | Glossary On
Versions: 1 2 3 4 5 6 7 8 9 10 11 12 13 14 15 16 17 18 19 20 21 22 23 24 25 26 27 28 29 30 31 32 33 34 35 36 37 38 39 40 41 42 43 44 45 46 47 48 49 50
202
ASUS43 KFSD 251210
RWRSD

WEATHER ROUNDUP FOR SOUTH DAKOTA
NATIONAL WEATHER SERVICE SIOUX FALLS SD
700 AM CDT WED APR 25 2018

NOTE: "FAIR" INDICATES FEW OR NO CLOUDS BELOW 12,000 FEET WITH NO
SIGNIFICANT WEATHER AND/OR OBSTRUCTIONS TO VISIBILITY.


SDZ001>005-009-010-012>017-251300-
NORTHWEST AND NORTH CENTRAL SOUTH DAKOTA

CITY           SKY/WX    TMP DP  RH WIND       PRES   REMARKS
BUFFALO          N/A     34  25  69 SW7       30.15F WCI  28
FAITH            N/A     33  28  81 SW9       30.25F WCI  25
MOBRIDGE       CLEAR     31  27  85 SE3       30.24F
$$

SDZ012>016-024>037-041>051-057-063-072>074-251300-
SOUTHWEST AND SOUTH CENTRAL SOUTH DAKOTA

CITY           SKY/WX    TMP DP  RH WIND       PRES   REMARKS
RAPID CTY ARPT CLEAR     26  20  77 SE3       30.26F
PIERRE         CLEAR     31  29  92 SW9       30.29F WCI  23
CUSTER         CLEAR     28  18  66 W8        30.26F WCI  20
ELLSWORTH AFB  CLEAR     29  22  75 SW6       30.25F WCI  23
PHILIP         CLEAR     28  26  92 W7        30.31F WCI  21
PINE RIDGE     CLEAR     21  19  92 E3        30.32F
SPEARFISH      FAIR      30  19  64 SE7       30.24F WCI  23
WINNER         FAIR      34  28  79 W6        30.32S WCI  29
$$

SDZ004>011-016>023-039-040-251300-
NORTHEAST SOUTH DAKOTA

CITY           SKY/WX    TMP DP  RH WIND       PRES   REMARKS
ABERDEEN       CLEAR     24  22  91 S3        30.29F
WATERTOWN      CLEAR     26  26 100 SW3       30.27F
BROOKINGS      CLEAR     31  28  89 N3        30.29R
SISSETON         N/A     29  26  89 S3        30.28S
$$

SDZ017-020-022-023-036>040-048>070-251300-
SOUTHEAST SOUTH DAKOTA

CITY           SKY/WX    TMP DP  RH WIND       PRES   REMARKS
SIOUX FALLS    PTCLDY    31  26  82 NW6       30.28S WCI  25
HURON          CLEAR     28  26  92 W3        30.31S
CHAMBERLAIN    CLEAR     31  31 100 W5        30.32S WCI  26
MITCHELL       CLEAR     31  28  89 W5        30.32S WCI  26
YANKTON        CLEAR     34  31  88 NW10      30.30R WCI  26
$$

ABBREVIATIONS USED IN REMARKS
   TC - TEMPERATURE IN CELSIUS
  WCI - WIND CHILL INDEX
   HX - HEAT INDEX
  VSB - VISIBILITY





USA.gov is the U.S. government's official web portal to all federal, state and local government web resources and services.